This demonstration page uses our WeatherBlox Daily Observations layout. Learn more.

Left ArrowRight Arrow

39.29038, -76.61219

Hourly Observations for November 10, 2016

Temp ( °F °C ) Dew Point ( °F °C ) Humidity (%) Winds ( mph kmh ) Pressure ( in mb ) Visibility ( mi km ) Precip ( " mm )
12:54 am 00:54 undefined 50 10 33 0.6 52 52 undefined N/A 30.04 1017 N/A 0.00 0.00
1:54 am 01:54 undefined 48 8.9 31 -0.6 52 52 undefined N/A 30.05 1018 N/A 0.00 0.00
2:54 am 02:54 undefined 47 8.3 32 0 56 56 undefined N/A 30.05 1018 N/A 0.00 0.00
3:54 am 03:54 undefined 46 7.8 31 -0.6 56 56 undefined N/A 30.05 1018 N/A 0.00 0.00
4:54 am 04:54 undefined 45 7.2 31 -0.6 58 58 undefined N/A 30.06 1018 N/A 0.00 0.00
5:54 am 05:54 undefined 45 7.2 31 -0.6 58 58 undefined N/A 30.07 1018 N/A 0.00 0.00
6:54 am 06:54 undefined 45 7.2 32 0 61 61 undefined N/A 30.09 1019 N/A 0.00 0.00
7:54 am 07:54 undefined 46 7.8 32 0 58 58 undefined N/A 30.11 1020 N/A 0.00 0.00
8:54 am 08:54 undefined 48 8.9 32 0 54 54 undefined N/A 30.11 1020 N/A 0.00 0.00
9:54 am 09:54 undefined 52 11.1 31 -0.6 45 45 undefined N/A 30.11 1020 N/A 0.00 0.00
10:54 am 10:54 undefined 54 12.2 29 -1.7 38 38 undefined N/A 30.10 1019 N/A 0.00 0.00
11:54 am 11:54 undefined 55 12.8 31 -0.6 40 40 undefined N/A 30.07 1018 N/A 0.00 0.00
12:54 pm 12:54 undefined 56 13.3 32 0 40 40 undefined N/A 30.04 1017 N/A 0.00 0.00
1:54 pm 13:54 undefined 59 15 32 0 36 36 undefined N/A 30.02 1017 N/A 0.00 0.00
2:54 pm 14:54 undefined 59 15 32 0 36 36 undefined N/A 30.00 1016 N/A 0.00 0.00
3:54 pm 15:54 undefined 59 15 33 0.6 38 38 undefined N/A 29.98 1015 N/A 0.00 0.00
4:54 pm 16:54 undefined 58 14.4 34 1.1 41 41 undefined N/A 29.96 1014 N/A 0.00 0.00
5:54 pm 17:54 undefined 56 13.3 35 1.7 46 46 undefined N/A 29.94 1014 N/A 0.00 0.00
6:54 pm 18:54 undefined 55 12.8 35 1.7 47 47 undefined N/A 29.93 1014 N/A 0.00 0.00
7:54 pm 19:54 undefined 54 12.2 34 1.1 47 47 undefined N/A 29.91 1013 N/A 0.00 0.00
8:54 pm 20:54 undefined 53 11.7 34 1.1 48 48 undefined N/A 29.90 1012 N/A 0.00 0.00
9:54 pm 21:54 undefined 50 10 34 1.1 54 54 undefined N/A 29.88 1012 N/A 0.00 0.00
10:54 pm 22:54 undefined 50 10 34 1.1 54 54 undefined N/A 29.85 1011 N/A 0.00 0.00
11:54 pm 23:54 undefined 50 10 33 0.6 52 52 undefined N/A 29.83 1010 N/A 0.00 0.00

Powered by AerisWeather